DLH2PL EDDS-EDLW

Flight info

Callsign DLH2PL
Flight time 0h 36m
Altitude 24000
Route VESID2H/07 VESID DCT ERLET DCT OLGAD DCT RAVKI/N0415F230 DCT PODIP DCT GMH DCT ADEMI ADEMI2A
Aircraft A320/M-SDE3FGHIRWY/LB1

Departure

Time 2026-04-30 22:00
Airport Stuttgart Airport (EDDS)

Arrival

Time 2026-04-30 22:36
Airport Dortmund Airport (EDLW)
Time Latitude Longitude Altitude Speed Heading
2026-04-30 21:34 48.68860 9.19211 1290 ft 0 kts 344°
2026-04-30 21:50 48.68856 9.19213 1285 ft 3 kts 344°
2026-04-30 21:50 48.68830 9.19224 1288 ft 4 kts 344°
2026-04-30 21:51 48.68807 9.19234 1290 ft 4 kts 347°
2026-04-30 21:51 48.68786 9.19230 1289 ft 4 kts 48°
2026-04-30 21:51 48.68772 9.19196 1287 ft 4 kts 70°
2026-04-30 21:51 48.68768 9.19175 1289 ft 0 kts 74°
2026-04-30 21:54 48.68771 9.19197 1287 ft 6 kts 75°
2026-04-30 21:54 48.68791 9.19307 1287 ft 15 kts 75°
2026-04-30 21:55 48.68822 9.19481 1288 ft 20 kts 73°
2026-04-30 21:55 48.68861 9.19677 1285 ft 19 kts 73°
2026-04-30 21:55 48.68885 9.19854 1285 ft 11 kts 117°
2026-04-30 21:55 48.68811 9.19921 1289 ft 14 kts 152°
2026-04-30 21:56 48.68719 9.19971 1287 ft 11 kts 165°
2026-04-30 21:56 48.68672 9.19991 1288 ft 0 kts 163°
2026-04-30 21:57 48.68652 9.20000 1287 ft 10 kts 163°
2026-04-30 21:57 48.68583 9.20072 1287 ft 8 kts 83°
2026-04-30 21:58 48.68601 9.20154 1286 ft 8 kts 75°
2026-04-30 21:58 48.68603 9.20163 1287 ft 0 kts 75°
2026-04-30 21:59 48.68611 9.20206 1285 ft 23 kts 73°
2026-04-30 21:59 48.68728 9.20830 1287 ft 96 kts 74°
2026-04-30 21:59 48.68968 9.22095 1288 ft 151 kts 74°
2026-04-30 22:00 48.69591 9.25436 2451 ft 166 kts 78°
2026-04-30 22:00 48.70263 9.29111 3285 ft 202 kts 78°
2026-04-30 22:00 48.70668 9.31287 3674 ft 227 kts 78°
2026-04-30 22:01 48.71118 9.33654 4368 ft 239 kts 77°
2026-04-30 22:01 48.71593 9.36113 5179 ft 248 kts 76°
2026-04-30 22:01 48.72088 9.38645 6029 ft 254 kts 75°
2026-04-30 22:01 48.72847 9.41084 6861 ft 264 kts 50°
2026-04-30 22:02 48.74362 9.42636 7670 ft 274 kts 25°
2026-04-30 22:02 48.76212 9.43456 8545 ft 281 kts 12°
2026-04-30 22:02 48.78191 9.43319 9394 ft 292 kts 349°
2026-04-30 22:02 48.80141 9.42258 10277 ft 299 kts 336°
2026-04-30 22:03 48.82002 9.40763 10797 ft 316 kts 335°
2026-04-30 22:03 48.84051 9.39219 11069 ft 340 kts 337°
2026-04-30 22:03 48.86253 9.37628 11379 ft 360 kts 336°
2026-04-30 22:03 48.88368 9.35585 11993 ft 370 kts 323°
2026-04-30 22:04 48.90175 9.32753 12741 ft 378 kts 309°
2026-04-30 22:04 48.91503 9.29278 13512 ft 384 kts 294°
2026-04-30 22:04 48.92695 9.21266 14935 ft 393 kts 280°
2026-04-30 22:05 48.93131 9.17142 15622 ft 396 kts 280°
2026-04-30 22:05 48.93568 9.12993 16283 ft 399 kts 281°
2026-04-30 22:05 48.94010 9.08812 16946 ft 402 kts 281°
2026-04-30 22:05 48.94456 9.04594 17590 ft 406 kts 281°
2026-04-30 22:06 48.95034 9.00377 18203 ft 407 kts 290°
2026-04-30 22:06 48.97797 8.92912 19263 ft 407 kts 315°
2026-04-30 22:06 48.99887 8.90024 19782 ft 406 kts 327°
2026-04-30 22:07 49.02318 8.87869 20303 ft 404 kts 340°
2026-04-30 22:07 49.04932 8.86292 20813 ft 405 kts 342°
2026-04-30 22:07 49.07568 8.84725 21327 ft 409 kts 342°
2026-04-30 22:07 49.10228 8.83129 21794 ft 412 kts 341°
2026-04-30 22:08 49.12900 8.81492 22261 ft 417 kts 339°
2026-04-30 22:08 49.15431 8.79357 22756 ft 424 kts 329°
2026-04-30 22:08 49.17733 8.76504 23240 ft 431 kts 318°
2026-04-30 22:08 49.19709 8.73011 23708 ft 437 kts 309°
2026-04-30 22:09 49.21543 8.69274 24144 ft 439 kts 309°
2026-04-30 22:09 49.23392 8.65523 24306 ft 440 kts 310°
2026-04-30 22:09 49.25259 8.61742 24348 ft 451 kts 310°
2026-04-30 22:09 49.27157 8.57895 24351 ft 455 kts 309°
2026-04-30 22:10 49.29060 8.54021 24350 ft 455 kts 309°
2026-04-30 22:10 49.30964 8.50137 24355 ft 456 kts 309°
2026-04-30 22:10 49.32865 8.46255 24353 ft 456 kts 309°
2026-04-30 22:10 49.34768 8.42365 24347 ft 456 kts 309°
2026-04-30 22:11 49.38571 8.34579 24344 ft 456 kts 309°
2026-04-30 22:11 49.40467 8.30686 24353 ft 455 kts 310°
2026-04-30 22:11 49.42402 8.26842 24350 ft 455 kts 311°
2026-04-30 22:12 49.44383 8.23054 24346 ft 455 kts 312°
2026-04-30 22:12 49.46363 8.19350 24336 ft 455 kts 313°
2026-04-30 22:12 49.48382 8.15595 24331 ft 455 kts 313°
2026-04-30 22:12 49.50400 8.11823 24325 ft 456 kts 312°
2026-04-30 22:13 49.52405 8.08039 24322 ft 457 kts 311°
2026-04-30 22:13 49.54401 8.04232 24321 ft 457 kts 311°
2026-04-30 22:13 49.56395 8.00408 24317 ft 458 kts 311°
2026-04-30 22:13 49.58388 7.96574 24317 ft 459 kts 311°
2026-04-30 22:14 49.60381 7.92728 24313 ft 459 kts 311°
2026-04-30 22:14 49.62374 7.88880 24314 ft 459 kts 311°
2026-04-30 22:14 49.64369 7.85033 24316 ft 460 kts 311°
2026-04-30 22:14 49.66367 7.81179 24316 ft 460 kts 311°
2026-04-30 22:15 49.68368 7.77320 24323 ft 460 kts 312°
2026-04-30 22:15 49.70592 7.73811 24323 ft 456 kts 323°
2026-04-30 22:15 49.73164 7.70998 24321 ft 451 kts 334°
2026-04-30 22:15 49.75985 7.68962 24321 ft 446 kts 343°
2026-04-30 22:16 49.78969 7.67710 24324 ft 443 kts 353°
2026-04-30 22:16 49.82023 7.67258 24330 ft 439 kts
2026-04-30 22:17 49.91176 7.67121 24338 ft 441 kts
2026-04-30 22:17 49.93250 7.67092 24342 ft 442 kts
2026-04-30 22:17 50.00393 7.66988 24354 ft 442 kts
2026-04-30 22:18 50.03471 7.66946 24358 ft 442 kts
2026-04-30 22:18 50.08580 7.66878 24358 ft 442 kts
2026-04-30 22:19 50.14734 7.66792 24362 ft 442 kts
2026-04-30 22:19 50.17807 7.66746 24355 ft 442 kts
2026-04-30 22:19 50.23957 7.66650 24364 ft 442 kts
2026-04-30 22:20 50.27027 7.66607 24368 ft 441 kts
2026-04-30 22:20 50.33173 7.66517 24372 ft 441 kts
2026-04-30 22:20 50.36236 7.66597 24374 ft 439 kts
2026-04-30 22:21 50.39248 7.67281 24375 ft 437 kts 13°
2026-04-30 22:21 50.42247 7.68083 24374 ft 437 kts 12°
2026-04-30 22:21 50.45245 7.68879 24376 ft 437 kts 12°
2026-04-30 22:21 50.48242 7.69672 24378 ft 437 kts 12°
2026-04-30 22:22 50.51233 7.70463 24307 ft 433 kts 12°
2026-04-30 22:22 50.54200 7.71247 23306 ft 433 kts 12°
2026-04-30 22:22 50.57163 7.72030 22568 ft 430 kts 12°
2026-04-30 22:22 50.60094 7.72802 21930 ft 425 kts 13°
2026-04-30 22:23 50.62959 7.73561 21302 ft 420 kts 12°
2026-04-30 22:23 50.65829 7.74324 20699 ft 416 kts 12°
2026-04-30 22:23 50.68668 7.75079 20104 ft 412 kts 13°
2026-04-30 22:23 50.71475 7.75826 19539 ft 407 kts 13°
2026-04-30 22:24 50.74262 7.76569 18991 ft 403 kts 13°
2026-04-30 22:24 50.77013 7.77301 18424 ft 399 kts 13°
2026-04-30 22:24 50.79746 7.78029 17899 ft 394 kts 13°
2026-04-30 22:24 50.82407 7.78743 17400 ft 389 kts 13°
2026-04-30 22:25 50.85058 7.79456 16906 ft 384 kts 13°
2026-04-30 22:25 50.87681 7.80160 16421 ft 380 kts 13°
2026-04-30 22:25 50.90285 7.80863 15919 ft 377 kts 13°
2026-04-30 22:25 50.92856 7.81562 15423 ft 374 kts 13°
2026-04-30 22:26 50.97972 7.83030 14361 ft 371 kts 14°
2026-04-30 22:26 51.00504 7.83836 13763 ft 371 kts 15°
2026-04-30 22:26 51.03047 7.84481 13195 ft 372 kts
2026-04-30 22:27 51.05566 7.84001 12982 ft 356 kts 347°
2026-04-30 22:27 51.07751 7.82441 12837 ft 335 kts 330°
2026-04-30 22:27 51.11514 7.78519 11910 ft 316 kts 329°
2026-04-30 22:28 51.15143 7.74718 10709 ft 308 kts 329°
2026-04-30 22:28 51.16927 7.72845 10090 ft 306 kts 329°
2026-04-30 22:29 51.22198 7.67303 8044 ft 300 kts 329°
2026-04-30 22:29 51.23914 7.65498 7380 ft 298 kts 329°
2026-04-30 22:30 51.30820 7.58206 5305 ft 296 kts 328°
2026-04-30 22:31 51.35866 7.52853 3496 ft 279 kts 327°
2026-04-30 22:32 51.40331 7.48101 3241 ft 241 kts 328°
2026-04-30 22:32 51.43343 7.46094 2689 ft 234 kts
2026-04-30 22:33 51.47218 7.48534 2166 ft 179 kts 57°
2026-04-30 22:33 51.48419 7.51534 1751 ft 143 kts 68°
2026-04-30 22:34 51.49812 7.55483 1180 ft 134 kts 64°
2026-04-30 22:35 51.50730 7.58088 821 ft 134 kts 63°
2026-04-30 22:36 51.52224 7.62331 410 ft 28 kts 61°
2026-04-30 22:36 51.52317 7.62599 404 ft 25 kts 64°
2026-04-30 22:37 51.52077 7.62467 409 ft 15 kts 241°
2026-04-30 22:37 51.52028 7.62332 410 ft 13 kts 239°
2026-04-30 22:37 51.51960 7.62136 412 ft 13 kts 243°
2026-04-30 22:38 51.51814 7.61713 411 ft 28 kts 240°
2026-04-30 22:38 51.51656 7.61269 425 ft 16 kts 239°
2026-04-30 22:39 51.51608 7.61157 423 ft 11 kts 216°
2026-04-30 22:39 51.51541 7.61178 429 ft 1 kts 152°
2026-04-30 22:40 51.51535 7.61183 431 ft 0 kts 152°